Showing default

ORBCOMM FM 108, 41187

Orbit data source: Space-Track

ORBCOMM FM 108, 41187 is a payload satellite owned by Orbcomm (US) in LEO that was launched on Tue, 22 Dec 2015 UTC via an FALCON 9 launch vehicle from the Air Force Eastern Test Range (AFETR). Payload-class satellites include a variety of spacecraft equipped with specific instruments for various scientific and technological missions. These include communications satellites like Starlink; space stations such as the ISS; scientific satellites like the Hubble; Earth observation satellites from companies like Planet Labs, Umbra, and HawkEye 360; GPS; miniature CubeSats for education and research; and military/defense satellites.

Loading next visibility...
Identifier
41187, 2015-081J
Orbit
LEO
Last TLE update
10 hours ago
Origin
Manufacturer
SNC Louisville
Mission
Operational Commercial Communications
Bus & Motor
SN-100A, Unknown motor
Mass
172 kg wet, 158 kg dry
Launch date (UTC)
2015-12-22 (10 years ago)
Launch vehicle
FALCON 9
Launch site
Air Force Eastern Test Range (AFETR)
Object type
Payload
Rocket body
Debris
Shape & HBR
Box + 1 Pan + 1 Ant, 13 m
Radar Cross Section
2.222 m², Medium (>0.1 m² and < 1m²)

Expand to show TLE details & history

TLE from 10 hours ago
0 ORBCOMM FM 108
1 41187U 15081J   25186.60217530  .00000564  00000-0  15776-3 0  9996
2 41187  47.0063  20.0046 0002148  32.5171 327.5846 14.58172498509489
Epoch: 2025-07-05T14:27Z
TLE epoch observation values (Epoch: 2025-07-05T14:27:07.945Z)
Latitude
-0.00008°
Longitude
-120.61644°
Altitude
698.014 km
Speed
7.509 km/s
True Right ascension
01h 20m 01s
True Declination
0° 00' 00"
Sunlit
Object was in daylight at epoch
Visualization orbit readout
Latitude
4.16197°
Longitude
-118.69465°
Altitude
697.517 km
Speed
7.51 km/s
Apparent Right ascension
00h 58m 51s
Apparent Declination
-16° 45' 52"
Sunlit
Object is in daylight
Visualization observer readout
Local Sidereal Time
12:17:11
Azimuth
335.677° NNW
Elevation
-65.143°
Doppler factor
1
Orbital elements
Apogee altitude
701.835 km
Perigee altitude
698.794 km
Semi-major axis
7,078.452 km
Eccentricity
0.00021
Inclination
47.0063°
RAAN
20.0046°
Arg. of periapsis
32.5171°
True anomaly
Unknown
Mean anomaly
327.5846°
Eccentric anomaly
Unknown
Mean motion
3.64448 °/min
Orbital period
98.78 mins
BSTAR
0.00015776
Loading maneuver chart data...
Loading SW <> Apogee altitude chart data...
Loading historical data...
Loading historical data...
Loading historical data...
Loading historical data...
Loading historical data...
Loading historical data...
Loading historical data...

ORBCOMM FM 108 Visibility forecast

Observer location: undefined°, undefined°

Span
Click to sort rows by Start time (UTC) header in descending order
Start Az.
Max El. time (UTC)
Max El. Az.
Max El.
End time (UTC)
End Az.
8 mins2025-07-06 15:16:41.340Z207.476° SW2025-07-06 15:20:41.340Z152.382° SSE31.489°2025-07-06 15:24:41.340Z78.741° E
8 mins2025-07-06 17:00:41.340Z260.795° W2025-07-06 17:04:41.340Z351.625° N40.821°2025-07-06 17:08:41.340Z57.057° ENE
7 mins2025-07-06 18:45:41.340Z302.495° NW2025-07-06 18:48:41.340Z0.484° NNE30.554°2025-07-06 18:52:41.340Z62.658° ENE
7 mins2025-07-06 20:29:41.340Z309.399° NW2025-07-06 20:32:41.340Z12.702° NNE38.051°2025-07-06 20:36:41.340Z91.468° ESE
8 mins2025-07-06 22:12:41.340Z286.569° WNW2025-07-06 22:16:41.340Z202.431° SSW37.276°2025-07-06 22:20:41.340Z143.14° SSE
|